Showing default

HELIOS, 69021

AKA "HELIOS" on Space-Track | Orbit data source: Space-Track

HELIOS, 69021 is a Greek payload satellite in SSO that was launched on Sun, 03 May 2026 UTC via an FALCON 9 launch vehicle from the Air Force Western Test Range (AFWTR). Payload-class satellites include a variety of spacecraft equipped with specific instruments for various scientific and technological missions. These include communications satellites like Starlink; space stations such as the ISS; scientific satellites like the Hubble; Earth observation satellites from companies like Planet Labs, Umbra, and HawkEye 360; GPS; miniature CubeSats for education and research; and military/defense satellites.

Loading next visibility...
Identifier
69021, 2026-100AT
Orbit
SSO
Country
Flag of GRGR / GREC
Related business
Manufacturer
EMTECH
Mission
Operational Commercial Imaging
Bus & Motor
CUBESAT 8U, Unknown motor
Mass
~8 kg wet, ~8 kg dry
Launch date (UTC)
2026-05-03 (3 months ago)
Launch vehicle
FALCON 9
Launch site
Air Force Western Test Range (AFWTR)
Object type
Payload
Rocket body
Debris
Shape & HBR
Box + 3 Pan, 14.5 m
Radar Cross Section
0.054 m², Medium (>0.1 m² and < 1m²)

Expand to show TLE details & history
Last TLE update: 1 day ago

TLE from 1 day ago
0 HELIOS
1 69021U 26100AT  26201.28164828  .00003706  00000-0  17323-3 0  9992
2 69021  97.3980  98.4346 0003247 210.1422 149.9627 15.20397045 11835
Epoch: 2026-07-20T06:45Z
TLE epoch observation values (Epoch: 2026-07-20T06:45:34.411Z)
Latitude
-0.00002°
Longitude
58.97328°
Altitude
509.668 km
Speed
7.608 km/s
True Right ascension
06h 33m 44s
True Declination
0° 00' 00"
Sunlit
Object was in daylight at epoch
Visualization orbit readout
Latitude
Unknown
Longitude
Unknown
Altitude
Unknown
Speed
Unknown
Apparent Right ascension
Unknown
Apparent Declination
Unknown
Sunlit
N/A
Visualization observer readout
Local Sidereal Time
06:05:29
Azimuth
Unknown
Elevation
Unknown
Doppler factor
Unknown
Orbital elements
Apogee altitude
503.841 km
Perigee altitude
499.373 km
Semi-major axis
6,879.744 km
Eccentricity
0.00032
Inclination
97.398°
RAAN
98.4346°
Arg. of periapsis
210.1422°
True anomaly
149.98132°
Mean anomaly
149.9627°
Eccentric anomaly
149.97201°
Mean motion
3.80351 °/min
Orbital period
94.65 mins
BSTAR
0.00017323
Loading maneuver chart data...
Computing Atmospheric mass density...
Loading historical data...
Loading historical data...
Loading historical data...
Loading historical data...
Loading historical data...
Loading historical data...
Loading historical data...

Documentation

Showing up to 5 results
|